Time,TemperatureF,DewpointF,PressureIn,WindDirection,WindDirectionDegrees,WindSpeedMPH,WindSpeedGustMPH,Humidity,HourlyPrecipIn,Conditions,Clouds,dailyrainin,SoftwareType,DateUTC
2013-03-22 00:00:00,36.7,17.2,29.51,NNW,337,0.0,0.0,45,0.00,,,0.00,WUHU21623XXSP,2013-03-22 04:00:00,
2013-03-22 00:02:00,36.7,17.2,29.51,NNW,337,0.0,0.0,45,0.00,,,0.00,WUHU21623XXSP,2013-03-22 04:02:00,
2013-03-22 00:07:00,36.7,16.7,29.51,NNW,337,0.0,0.0,44,0.00,,,0.00,WUHU21623XXSP,2013-03-22 04:07:00,
2013-03-22 00:12:00,36.9,16.9,29.51,NNW,337,0.0,0.0,44,0.00,,,0.00,WUHU21623XXSP,2013-03-22 04:12:00,
2013-03-22 00:17:00,36.9,16.9,29.51,NNW,337,0.0,0.0,44,0.00,,,0.00,WUHU21623XXSP,2013-03-22 04:17:00,
2013-03-22 00:22:00,36.7,16.7,29.51,NNW,337,0.0,0.0,44,0.00,,,0.00,WUHU21623XXSP,2013-03-22 04:22:00,
2013-03-22 00:27:00,36.3,16.9,29.51,NNW,337,0.0,0.0,45,0.00,,,0.00,WUHU21623XXSP,2013-03-22 04:27:00,
2013-03-22 00:32:00,36.1,17.3,29.51,NNW,337,0.0,0.0,46,0.00,,,0.00,WUHU21623XXSP,2013-03-22 04:32:00,
2013-03-22 00:37:00,36.0,17.1,29.51,NNW,337,0.0,0.0,46,0.00,,,0.00,WUHU21623XXSP,2013-03-22 04:37:00,
2013-03-22 00:42:00,35.8,17.5,29.51,NNW,337,0.0,0.0,47,0.00,,,0.00,WUHU21623XXSP,2013-03-22 04:42:00,
2013-03-22 00:47:00,35.8,17.5,29.51,NNW,337,0.0,0.0,47,0.00,,,0.00,WUHU21623XXSP,2013-03-22 04:47:00,
2013-03-22 00:52:00,35.8,17.5,29.51,NNW,337,0.0,0.0,47,0.00,,,0.00,WUHU21623XXSP,2013-03-22 04:52:00,
2013-03-22 00:57:00,35.6,17.8,29.51,NNW,337,0.0,0.0,48,0.00,,,0.00,WUHU21623XXSP,2013-03-22 04:57:00,
2013-03-22 01:02:00,35.8,17.5,29.51,NNW,337,0.0,0.0,47,0.00,,,0.00,WUHU21623XXSP,2013-03-22 05:02:00,
2013-03-22 01:07:00,35.8,17.5,29.51,NNW,337,0.0,0.0,47,0.00,,,0.00,WUHU21623XXSP,2013-03-22 05:07:00,
2013-03-22 01:12:00,36.0,17.6,29.51,NNW,337,0.0,0.0,47,0.00,,,0.00,WUHU21623XXSP,2013-03-22 05:12:00,
2013-03-22 01:17:00,36.1,17.8,29.51,NNW,337,0.0,0.0,47,0.00,,,0.00,WUHU21623XXSP,2013-03-22 05:17:00,
2013-03-22 01:22:00,36.3,17.9,29.51,North,0,0.0,0.0,47,0.00,,,0.00,WUHU21623XXSP,2013-03-22 05:22:00,
2013-03-22 01:27:00,36.1,18.3,29.51,North,0,0.0,0.0,48,0.00,,,0.00,WUHU21623XXSP,2013-03-22 05:27:00,
2013-03-22 01:32:00,35.8,18.0,29.51,North,0,0.0,0.0,48,0.00,,,0.00,WUHU21623XXSP,2013-03-22 05:32:00,
2013-03-22 01:37:00,35.4,18.2,29.51,North,0,0.0,0.0,49,0.00,,,0.00,WUHU21623XXSP,2013-03-22 05:37:00,
2013-03-22 01:42:00,35.2,18.0,29.51,North,0,0.0,0.0,49,0.00,,,0.00,WUHU21623XXSP,2013-03-22 05:42:00,
2013-03-22 01:47:00,35.2,18.5,29.51,North,0,0.0,0.0,50,0.00,,,0.00,WUHU21623XXSP,2013-03-22 05:47:00,
2013-03-22 01:52:00,34.7,18.0,29.51,North,0,0.0,0.0,50,0.00,,,0.00,WUHU21623XXSP,2013-03-22 05:52:00,
2013-03-22 01:57:00,34.7,18.0,29.51,North,0,0.0,0.0,50,0.00,,,0.00,WUHU21623XXSP,2013-03-22 05:57:00,
2013-03-22 02:02:00,34.7,18.0,29.51,North,0,0.0,0.0,50,0.00,,,0.00,WUHU21623XXSP,2013-03-22 06:02:00,
2013-03-22 02:07:00,34.7,18.0,29.51,North,0,0.0,0.0,50,0.00,,,0.00,WUHU21623XXSP,2013-03-22 06:07:00,
2013-03-22 02:12:00,34.3,18.0,29.52,North,0,0.0,0.0,51,0.00,,,0.00,WUHU21623XXSP,2013-03-22 06:12:00,
2013-03-22 02:17:00,34.2,17.9,29.52,North,0,0.0,0.0,51,0.00,,,0.00,WUHU21623XXSP,2013-03-22 06:17:00,
2013-03-22 02:22:00,33.8,17.9,29.52,North,0,0.0,0.0,52,0.00,,,0.00,WUHU21623XXSP,2013-03-22 06:22:00,
2013-03-22 02:27:00,33.6,17.8,29.52,North,0,0.0,0.0,52,0.00,,,0.00,WUHU21623XXSP,2013-03-22 06:27:00,
2013-03-22 02:32:00,33.6,18.2,29.52,North,0,0.0,0.0,53,0.00,,,0.00,WUHU21623XXSP,2013-03-22 06:32:00,
2013-03-22 02:37:00,33.6,18.2,29.53,North,0,0.0,0.0,53,0.00,,,0.00,WUHU21623XXSP,2013-03-22 06:37:00,
2013-03-22 02:43:00,33.6,18.2,29.53,North,0,0.0,0.0,53,0.00,,,0.00,WUHU21623XXSP,2013-03-22 06:43:00,
2013-03-22 02:48:00,33.6,18.2,29.53,North,0,0.0,0.0,53,0.00,,,0.00,WUHU21623XXSP,2013-03-22 06:48:00,
2013-03-22 02:53:00,33.3,17.4,29.53,North,0,0.0,0.0,52,0.00,,,0.00,WUHU21623XXSP,2013-03-22 06:53:00,
2013-03-22 02:58:00,32.9,17.1,29.53,North,0,0.0,0.0,52,0.00,,,0.00,WUHU21623XXSP,2013-03-22 06:58:00,
2013-03-22 03:03:00,32.7,17.4,29.52,North,0,0.0,0.0,53,0.00,,,0.00,WUHU21623XXSP,2013-03-22 07:03:00,
2013-03-22 03:08:00,32.5,17.2,29.53,North,0,0.0,0.0,53,0.00,,,0.00,WUHU21623XXSP,2013-03-22 07:08:00,
2013-03-22 03:13:00,32.5,17.7,29.54,North,0,0.0,0.0,54,0.00,,,0.00,WUHU21623XXSP,2013-03-22 07:13:00,
2013-03-22 03:20:00,32.7,17.8,29.54,North,0,0.0,0.0,54,0.00,,,0.00,WUHU21623XXSP,2013-03-22 07:20:00,
2013-03-22 03:25:00,32.9,18.0,29.54,North,0,0.0,0.0,54,0.00,,,0.00,WUHU21623XXSP,2013-03-22 07:25:00,
2013-03-22 03:30:00,33.3,18.3,29.54,North,0,0.0,0.0,54,0.00,,,0.00,WUHU21623XXSP,2013-03-22 07:30:00,
2013-03-22 03:35:00,33.6,18.6,29.55,North,0,0.0,0.0,54,0.00,,,0.00,WUHU21623XXSP,2013-03-22 07:35:00,
2013-03-22 03:40:00,34.2,19.1,29.55,North,0,0.0,0.0,54,0.00,,,0.00,WUHU21623XXSP,2013-03-22 07:40:00,
2013-03-22 03:45:00,34.3,19.3,29.56,North,0,0.0,0.0,54,0.00,,,0.00,WUHU21623XXSP,2013-03-22 07:45:00,
2013-03-22 03:50:00,34.7,19.3,29.55,North,0,0.0,0.0,53,0.00,,,0.00,WUHU21623XXSP,2013-03-22 07:50:00,
2013-03-22 03:55:00,34.9,19.0,29.56,North,0,0.0,0.0,52,0.00,,,0.00,WUHU21623XXSP,2013-03-22 07:55:00,
2013-03-22 04:00:00,35.2,19.4,29.56,North,0,0.0,0.0,52,0.00,,,0.00,WUHU21623XXSP,2013-03-22 08:00:00,
2013-03-22 04:05:00,35.2,19.4,29.56,North,0,0.0,0.0,52,0.00,,,0.00,WUHU21623XXSP,2013-03-22 08:05:00,
2013-03-22 04:10:00,35.2,19.8,29.56,North,0,0.0,0.0,53,0.00,,,0.00,WUHU21623XXSP,2013-03-22 08:10:00,
2013-03-22 04:15:00,35.4,19.5,29.57,North,0,0.0,0.0,52,0.00,,,0.00,WUHU21623XXSP,2013-03-22 08:15:00,
2013-03-22 04:20:00,35.4,19.5,29.57,North,0,0.0,0.0,52,0.00,,,0.00,WUHU21623XXSP,2013-03-22 08:20:00,
2013-03-22 04:25:00,35.4,19.5,29.57,North,0,0.0,0.0,52,0.00,,,0.00,WUHU21623XXSP,2013-03-22 08:25:00,
2013-03-22 04:30:00,35.4,19.5,29.57,North,0,0.0,0.0,52,0.00,,,0.00,WUHU21623XXSP,2013-03-22 08:30:00,
2013-03-22 04:35:00,35.4,19.5,29.57,North,0,0.0,0.0,52,0.00,,,0.00,WUHU21623XXSP,2013-03-22 08:35:00,
2013-03-22 04:40:00,35.6,19.7,29.56,North,0,0.0,0.0,52,0.00,,,0.00,WUHU21623XXSP,2013-03-22 08:40:00,
2013-03-22 04:45:00,35.6,19.7,29.57,North,0,0.0,0.0,52,0.00,,,0.00,WUHU21623XXSP,2013-03-22 08:45:00,
2013-03-22 04:50:00,35.4,20.0,29.56,North,0,0.0,0.0,53,0.00,,,0.00,WUHU21623XXSP,2013-03-22 08:50:00,
2013-03-22 04:55:00,35.4,20.0,29.57,North,0,0.0,0.0,53,0.00,,,0.00,WUHU21623XXSP,2013-03-22 08:55:00,
2013-03-22 05:00:00,35.4,20.8,29.57,North,0,0.0,0.0,55,0.00,,,0.00,WUHU21623XXSP,2013-03-22 09:00:00,
2013-03-22 05:05:00,35.4,20.4,29.57,North,0,0.0,0.0,54,0.00,,,0.00,WUHU21623XXSP,2013-03-22 09:05:00,
2013-03-22 05:10:00,35.4,20.8,29.57,North,0,0.0,0.0,55,0.00,,,0.00,WUHU21623XXSP,2013-03-22 09:10:00,
2013-03-22 05:15:00,35.4,20.4,29.57,North,0,0.0,0.0,54,0.00,,,0.00,WUHU21623XXSP,2013-03-22 09:15:00,
2013-03-22 05:20:00,35.8,20.8,29.57,North,0,0.0,0.0,54,0.00,,,0.00,WUHU21623XXSP,2013-03-22 09:20:00,
2013-03-22 05:25:00,35.8,20.8,29.57,North,0,0.0,0.0,54,0.00,,,0.00,WUHU21623XXSP,2013-03-22 09:25:00,
2013-03-22 05:30:00,35.8,20.3,29.57,North,0,0.0,0.0,53,0.00,,,0.00,WUHU21623XXSP,2013-03-22 09:30:00,
2013-03-22 05:35:00,36.0,20.5,29.57,North,0,0.0,0.0,53,0.00,,,0.00,WUHU21623XXSP,2013-03-22 09:35:00,
2013-03-22 05:40:00,36.1,21.1,29.57,North,0,0.0,0.0,54,0.00,,,0.00,WUHU21623XXSP,2013-03-22 09:40:00,
2013-03-22 05:45:00,36.3,20.8,29.57,North,0,0.0,0.0,53,0.00,,,0.00,WUHU21623XXSP,2013-03-22 09:45:00,
2013-03-22 05:50:00,36.3,20.8,29.58,SSE,157,0.0,0.0,53,0.00,,,0.00,WUHU21623XXSP,2013-03-22 09:50:00,
2013-03-22 05:55:00,36.7,20.7,29.58,SE,135,0.0,0.0,52,0.00,,,0.00,WUHU21623XXSP,2013-03-22 09:55:00,
2013-03-22 06:00:00,36.7,20.3,29.58,SE,135,0.0,0.0,51,0.00,,,0.00,WUHU21623XXSP,2013-03-22 10:00:00,
2013-03-22 06:05:00,37.0,20.2,29.58,NE,45,0.0,0.0,50,0.00,,,0.00,WUHU21623XXSP,2013-03-22 10:05:00,
2013-03-22 06:10:00,37.2,19.8,29.58,SE,135,0.0,0.0,49,0.00,,,0.00,WUHU21623XXSP,2013-03-22 10:10:00,
2013-03-22 06:15:00,37.2,19.3,29.58,ESE,112,0.0,0.0,48,0.00,,,0.00,WUHU21623XXSP,2013-03-22 10:15:00,
2013-03-22 06:20:00,37.4,19.4,29.58,SSE,157,0.0,0.0,48,0.00,,,0.00,WUHU21623XXSP,2013-03-22 10:20:00,
2013-03-22 06:25:00,37.4,18.9,29.58,SE,135,0.0,2.7,47,0.00,,,0.00,WUHU21623XXSP,2013-03-22 10:25:00,
2013-03-22 06:30:00,37.6,19.1,29.58,SE,135,0.0,2.7,47,0.00,,,0.00,WUHU21623XXSP,2013-03-22 10:30:00,
2013-03-22 06:35:00,37.6,18.6,29.57,ESE,112,0.0,0.2,46,0.00,,,0.00,WUHU21623XXSP,2013-03-22 10:35:00,
2013-03-22 06:40:00,37.2,18.2,29.57,SE,135,0.0,3.6,46,0.00,,,0.00,WUHU21623XXSP,2013-03-22 10:40:00,
2013-03-22 06:45:00,37.0,18.1,29.58,SW,225,0.0,3.6,46,0.00,,,0.00,WUHU21623XXSP,2013-03-22 10:45:00,
2013-03-22 06:50:00,36.9,17.9,29.59,SSE,157,0.0,0.7,46,0.00,,,0.00,WUHU21623XXSP,2013-03-22 10:50:00,
2013-03-22 06:55:00,36.9,17.9,29.58,SE,135,0.0,0.0,46,0.00,,,0.00,WUHU21623XXSP,2013-03-22 10:55:00,
2013-03-22 07:00:00,36.9,17.9,29.59,SE,135,0.0,0.0,46,0.00,,,0.00,WUHU21623XXSP,2013-03-22 11:00:00,
2013-03-22 07:06:00,37.0,18.1,29.58,SE,135,0.0,1.1,46,0.00,,,0.00,WUHU21623XXSP,2013-03-22 11:06:00,
2013-03-22 07:11:00,37.0,18.1,29.59,SE,135,0.0,1.1,46,0.00,,,0.00,WUHU21623XXSP,2013-03-22 11:11:00,
2013-03-22 07:16:00,37.0,18.1,29.59,SE,135,0.0,0.2,46,0.00,,,0.00,WUHU21623XXSP,2013-03-22 11:16:00,
2013-03-22 07:21:00,37.2,18.2,29.60,SE,135,0.0,0.2,46,0.00,,,0.00,WUHU21623XXSP,2013-03-22 11:21:00,
2013-03-22 07:26:00,37.2,18.2,29.60,SE,135,0.0,2.0,46,0.00,,,0.00,WUHU21623XXSP,2013-03-22 11:26:00,
2013-03-22 07:31:00,37.2,18.2,29.59,SE,135,0.0,2.0,46,0.00,,,0.00,WUHU21623XXSP,2013-03-22 11:31:00,
2013-03-22 07:36:00,37.0,18.1,29.60,SE,135,0.0,0.0,46,0.00,,,0.00,WUHU21623XXSP,2013-03-22 11:36:00,
2013-03-22 07:41:00,36.7,17.2,29.60,ESE,112,0.0,2.7,45,0.00,,,0.00,WUHU21623XXSP,2013-03-22 11:41:00,
2013-03-22 07:46:00,36.5,17.6,29.61,ESE,112,0.0,2.7,46,0.00,,,0.00,WUHU21623XXSP,2013-03-22 11:46:00,
2013-03-22 07:51:00,36.3,17.4,29.61,SSE,157,0.0,1.3,46,0.00,,,0.00,WUHU21623XXSP,2013-03-22 11:51:00,
2013-03-22 07:56:00,36.1,17.3,29.61,South,180,0.0,1.3,46,0.00,,,0.00,WUHU21623XXSP,2013-03-22 11:56:00,
2013-03-22 08:01:00,36.1,17.3,29.60,WSW,247,0.0,0.2,46,0.00,,,0.00,WUHU21623XXSP,2013-03-22 12:01:00,
2013-03-22 08:07:00,36.1,16.7,29.60,SSE,157,0.0,0.2,45,0.00,,,0.00,WUHU21623XXSP,2013-03-22 12:07:00,
2013-03-22 08:12:00,36.3,16.9,29.60,SE,135,0.0,4.3,45,0.00,,,0.00,WUHU21623XXSP,2013-03-22 12:12:00,
2013-03-22 08:17:00,36.9,17.4,29.60,SSE,157,0.0,7.2,45,0.00,,,0.00,WUHU21623XXSP,2013-03-22 12:17:00,
2013-03-22 08:22:00,38.1,18.5,29.60,SE,135,0.0,7.2,45,0.00,,,0.00,WUHU21623XXSP,2013-03-22 12:22:00,
2013-03-22 08:27:00,38.5,18.3,29.60,SSW,202,0.0,4.9,44,0.00,,,0.00,WUHU21623XXSP,2013-03-22 12:27:00,
2013-03-22 08:32:00,38.1,18.0,29.60,SE,135,0.0,5.1,44,0.00,,,0.00,WUHU21623XXSP,2013-03-22 12:32:00,
2013-03-22 08:37:00,37.6,17.5,29.60,SSE,157,0.0,5.1,44,0.00,,,0.00,WUHU21623XXSP,2013-03-22 12:37:00,
2013-03-22 08:42:00,38.1,18.5,29.60,ESE,112,0.0,2.0,45,0.00,,,0.00,WUHU21623XXSP,2013-03-22 12:42:00,
2013-03-22 08:47:00,40.3,20.5,29.60,ESE,112,0.0,0.0,45,0.00,,,0.00,WUHU21623XXSP,2013-03-22 12:47:00,
2013-03-22 08:52:00,42.1,21.6,29.60,SSE,157,0.0,0.0,44,0.00,,,0.00,WUHU21623XXSP,2013-03-22 12:52:00,
2013-03-22 08:57:00,42.6,21.0,29.60,ESE,112,0.0,0.0,42,0.00,,,0.00,WUHU21623XXSP,2013-03-22 12:57:00,
2013-03-22 09:02:00,43.0,21.4,29.60,ESE,112,0.0,0.0,42,0.00,,,0.00,WUHU21623XXSP,2013-03-22 13:02:00,
2013-03-22 09:07:00,43.2,21.5,29.60,ESE,112,0.0,0.0,42,0.00,,,0.00,WUHU21623XXSP,2013-03-22 13:07:00,
2013-03-22 09:12:00,44.4,22.1,29.60,SE,135,0.0,0.0,41,0.00,,,0.00,WUHU21623XXSP,2013-03-22 13:12:00,
2013-03-22 09:17:00,44.6,21.7,29.61,SE,135,0.0,0.9,40,0.00,,,0.00,WUHU21623XXSP,2013-03-22 13:17:00,
2013-03-22 09:22:00,43.9,21.1,29.60,SE,135,0.0,0.9,40,0.00,,,0.00,WUHU21623XXSP,2013-03-22 13:22:00,
2013-03-22 09:27:00,43.3,20.6,29.60,ESE,112,0.0,4.7,40,0.00,,,0.00,WUHU21623XXSP,2013-03-22 13:27:00,
2013-03-22 09:32:00,44.4,22.1,29.60,SSE,157,0.0,4.7,41,0.00,,,0.00,WUHU21623XXSP,2013-03-22 13:32:00,
2013-03-22 09:37:00,45.5,22.5,29.60,SE,135,0.0,4.0,40,0.00,,,0.00,WUHU21623XXSP,2013-03-22 13:37:00,
2013-03-22 09:42:00,46.9,23.2,29.60,SSE,157,0.0,4.5,39,0.00,,,0.00,WUHU21623XXSP,2013-03-22 13:42:00,
2013-03-22 09:47:00,47.3,22.8,29.60,ESE,112,0.0,4.5,38,0.00,,,0.00,WUHU21623XXSP,2013-03-22 13:47:00,
2013-03-22 09:52:00,47.8,22.7,29.60,SSE,157,0.7,3.8,37,0.00,,,0.00,WUHU21623XXSP,2013-03-22 13:52:00,
2013-03-22 09:57:00,48.2,23.0,29.60,ESE,112,0.0,4.9,37,0.00,,,0.00,WUHU21623XXSP,2013-03-22 13:57:00,
2013-03-22 10:02:00,48.7,22.8,29.60,ESE,112,0.0,4.9,36,0.00,,,0.00,WUHU21623XXSP,2013-03-22 14:02:00,
2013-03-22 10:07:00,49.6,22.9,29.60,SSE,157,0.0,4.3,35,0.00,,,0.00,WUHU21623XXSP,2013-03-22 14:07:00,
2013-03-22 10:12:00,49.6,22.9,29.60,NNE,22,0.0,0.7,35,0.00,,,0.00,WUHU21623XXSP,2013-03-22 14:12:00,
2013-03-22 10:17:00,50.4,23.5,29.60,SE,135,0.0,0.0,35,0.00,,,0.00,WUHU21623XXSP,2013-03-22 14:17:00,
2013-03-22 10:22:00,51.1,23.5,29.60,SE,135,0.0,0.0,34,0.00,,,0.00,WUHU21623XXSP,2013-03-22 14:22:00,
2013-03-22 10:27:00,50.4,22.8,29.60,SE,135,0.0,0.0,34,0.00,,,0.00,WUHU21623XXSP,2013-03-22 14:27:00,
2013-03-22 10:32:00,49.1,21.7,29.61,SE,135,0.0,0.0,34,0.00,,,0.00,WUHU21623XXSP,2013-03-22 14:32:00,
2013-03-22 10:37:00,47.8,21.3,29.60,ESE,112,0.0,0.0,35,0.00,,,0.00,WUHU21623XXSP,2013-03-22 14:37:00,
2013-03-22 10:42:00,46.2,19.9,29.60,SE,135,0.0,0.0,35,0.00,,,0.00,WUHU21623XXSP,2013-03-22 14:42:00,
2013-03-22 10:47:00,45.5,19.9,29.61,SE,135,0.0,0.0,36,0.00,,,0.00,WUHU21623XXSP,2013-03-22 14:47:00,
2013-03-22 10:52:00,45.1,20.2,29.61,SE,135,0.0,0.0,37,0.00,,,0.00,WUHU21623XXSP,2013-03-22 14:52:00,
2013-03-22 10:57:00,45.0,20.1,29.62,SE,135,0.0,0.0,37,0.00,,,0.00,WUHU21623XXSP,2013-03-22 14:57:00,
2013-03-22 11:02:00,45.0,20.1,29.61,SE,135,0.0,0.0,37,0.00,,,0.00,WUHU21623XXSP,2013-03-22 15:02:00,
2013-03-22 11:08:00,45.0,20.1,29.62,SE,135,0.0,0.0,37,0.00,,,0.00,WUHU21623XXSP,2013-03-22 15:08:00,
2013-03-22 11:13:00,44.8,19.9,29.62,SE,135,0.0,0.0,37,0.00,,,0.00,WUHU21623XXSP,2013-03-22 15:13:00,
2013-03-22 11:18:00,45.1,20.9,29.63,SE,135,0.0,0.0,38,0.00,,,0.00,WUHU21623XXSP,2013-03-22 15:18:00,
2013-03-22 11:23:00,45.5,21.2,29.63,SE,135,0.0,0.0,38,0.00,,,0.00,WUHU21623XXSP,2013-03-22 15:23:00,
2013-03-22 11:28:00,46.0,21.0,29.62,SSE,157,0.0,0.0,37,0.00,,,0.00,WUHU21623XXSP,2013-03-22 15:28:00,
2013-03-22 11:33:00,46.6,21.5,29.62,SSE,157,0.0,0.0,37,0.00,,,0.00,WUHU21623XXSP,2013-03-22 15:33:00,
2013-03-22 11:38:00,47.3,22.2,29.62,SSE,157,0.0,0.0,37,0.00,,,0.00,WUHU21623XXSP,2013-03-22 15:38:00,
2013-03-22 11:43:00,48.2,22.3,29.62,SW,225,0.0,0.0,36,0.00,,,0.00,WUHU21623XXSP,2013-03-22 15:43:00,
2013-03-22 11:48:00,49.1,22.4,29.62,SSE,157,0.0,0.0,35,0.00,,,0.00,WUHU21623XXSP,2013-03-22 15:48:00,
2013-03-22 11:53:00,49.8,23.0,29.62,SE,135,0.0,0.0,35,0.00,,,0.00,WUHU21623XXSP,2013-03-22 15:53:00,
2013-03-22 11:58:00,50.4,23.5,29.63,ESE,112,0.0,0.0,35,0.00,,,0.00,WUHU21623XXSP,2013-03-22 15:58:00,
2013-03-22 12:03:00,51.1,23.5,29.63,SSE,157,0.0,0.0,34,0.00,,,0.00,WUHU21623XXSP,2013-03-22 16:03:00,
2013-03-22 12:08:00,51.6,24.0,29.63,SSE,157,0.0,0.0,34,0.00,,,0.00,WUHU21623XXSP,2013-03-22 16:08:00,
2013-03-22 12:13:00,51.4,23.1,29.63,SSW,202,0.0,0.0,33,0.00,,,0.00,WUHU21623XXSP,2013-03-22 16:13:00,
2013-03-22 12:18:00,50.9,23.3,29.62,SSW,202,0.0,0.0,34,0.00,,,0.00,WUHU21623XXSP,2013-03-22 16:18:00,
2013-03-22 12:23:00,50.9,23.3,29.63,SE,135,0.0,0.0,34,0.00,,,0.00,WUHU21623XXSP,2013-03-22 16:23:00,
2013-03-22 12:28:00,50.7,23.1,29.62,SE,135,0.0,0.0,34,0.00,,,0.00,WUHU21623XXSP,2013-03-22 16:28:00,
2013-03-22 12:33:00,50.2,22.7,29.62,SE,135,0.0,0.0,34,0.00,,,0.00,WUHU21623XXSP,2013-03-22 16:33:00,
2013-03-22 12:38:00,49.6,22.2,29.62,SE,135,0.0,0.0,34,0.00,,,0.00,WUHU21623XXSP,2013-03-22 16:38:00,
2013-03-22 12:43:00,49.6,22.9,29.62,SE,135,0.0,0.0,35,0.00,,,0.00,WUHU21623XXSP,2013-03-22 16:43:00,
2013-03-22 12:48:00,50.4,23.5,29.63,South,180,0.0,0.0,35,0.00,,,0.00,WUHU21623XXSP,2013-03-22 16:48:00,
2013-03-22 12:53:00,51.8,24.1,29.63,SSW,202,0.0,0.0,34,0.00,,,0.00,WUHU21623XXSP,2013-03-22 16:53:00,
2013-03-22 12:58:00,53.4,24.9,29.62,SSE,157,0.0,0.0,33,0.00,,,0.00,WUHU21623XXSP,2013-03-22 16:58:00,
2013-03-22 13:03:00,54.3,25.6,29.62,SSE,157,0.0,0.0,33,0.00,,,0.00,WUHU21623XXSP,2013-03-22 17:03:00,
2013-03-22 13:08:00,54.9,25.4,29.63,SW,225,0.0,0.0,32,0.00,,,0.00,WUHU21623XXSP,2013-03-22 17:08:00,
2013-03-22 13:13:00,54.5,25.1,29.62,SE,135,0.0,0.0,32,0.00,,,0.00,WUHU21623XXSP,2013-03-22 17:13:00,
2013-03-22 13:18:00,54.1,24.8,29.62,WSW,247,0.0,0.0,32,0.00,,,0.00,WUHU21623XXSP,2013-03-22 17:18:00,
2013-03-22 13:23:00,54.1,24.8,29.62,WSW,247,0.0,0.0,32,0.00,,,0.00,WUHU21623XXSP,2013-03-22 17:23:00,
2013-03-22 13:28:00,53.2,24.0,29.62,WSW,247,0.0,0.0,32,0.00,,,0.00,WUHU21623XXSP,2013-03-22 17:28:00,
2013-03-22 13:33:00,52.7,23.6,29.62,SW,225,0.0,0.0,32,0.00,,,0.00,WUHU21623XXSP,2013-03-22 17:33:00,
2013-03-22 13:38:00,52.0,22.9,29.62,SE,135,0.0,0.0,32,0.00,,,0.00,WUHU21623XXSP,2013-03-22 17:38:00,
2013-03-22 13:43:00,52.0,22.9,29.61,South,180,0.0,0.0,32,0.00,,,0.00,WUHU21623XXSP,2013-03-22 17:43:00,
2013-03-22 13:48:00,52.3,23.9,29.61,South,180,0.0,0.0,33,0.00,,,0.00,WUHU21623XXSP,2013-03-22 17:48:00,
2013-03-22 13:53:00,53.2,24.7,29.61,SSW,202,0.0,0.0,33,0.00,,,0.00,WUHU21623XXSP,2013-03-22 17:53:00,
2013-03-22 13:58:00,54.3,24.9,29.60,WSW,247,0.0,0.0,32,0.00,,,0.00,WUHU21623XXSP,2013-03-22 17:58:00,
2013-03-22 14:03:00,55.2,25.7,29.60,South,180,0.0,0.0,32,0.00,,,0.00,WUHU21623XXSP,2013-03-22 18:03:00,
2013-03-22 14:08:00,55.2,25.7,29.60,South,180,0.0,0.0,32,0.00,,,0.00,WUHU21623XXSP,2013-03-22 18:08:00,
2013-03-22 14:13:00,54.5,25.1,29.60,SE,135,0.0,0.0,32,0.00,,,0.00,WUHU21623XXSP,2013-03-22 18:13:00,
2013-03-22 14:18:00,54.1,24.8,29.60,SSE,157,0.0,0.0,32,0.00,,,0.00,WUHU21623XXSP,2013-03-22 18:18:00,
2013-03-22 14:23:00,53.8,24.5,29.60,South,180,0.0,0.0,32,0.00,,,0.00,WUHU21623XXSP,2013-03-22 18:23:00,
2013-03-22 14:28:00,53.8,24.5,29.60,SSE,157,0.0,3.8,32,0.00,,,0.00,WUHU21623XXSP,2013-03-22 18:28:00,
2013-03-22 14:33:00,53.8,24.5,29.60,WSW,247,0.0,3.8,32,0.00,,,0.00,WUHU21623XXSP,2013-03-22 18:33:00,
2013-03-22 14:38:00,53.2,24.7,29.60,West,270,0.0,0.0,33,0.00,,,0.00,WUHU21623XXSP,2013-03-22 18:38:00,
2013-03-22 14:43:00,52.9,24.4,29.59,West,270,0.0,0.0,33,0.00,,,0.00,WUHU21623XXSP,2013-03-22 18:43:00,
2013-03-22 14:48:00,53.1,24.6,29.59,East,90,0.0,0.0,33,0.00,,,0.00,WUHU21623XXSP,2013-03-22 18:48:00,
2013-03-22 14:53:00,53.1,24.6,29.59,SSE,157,0.0,0.0,33,0.00,,,0.00,WUHU21623XXSP,2013-03-22 18:53:00,
2013-03-22 14:58:00,53.2,24.7,29.59,SW,225,0.0,0.0,33,0.00,,,0.00,WUHU21623XXSP,2013-03-22 18:58:00,
2013-03-22 15:04:00,53.2,24.7,29.59,SSE,157,0.0,0.0,33,0.00,,,0.00,WUHU21623XXSP,2013-03-22 19:04:00,
2013-03-22 15:09:00,53.4,24.9,29.58,SSE,157,0.0,0.0,33,0.00,,,0.00,WUHU21623XXSP,2013-03-22 19:09:00,
2013-03-22 15:14:00,53.8,25.2,29.58,WSW,247,0.0,0.0,33,0.00,,,0.00,WUHU21623XXSP,2013-03-22 19:14:00,
2013-03-22 15:19:00,53.6,25.1,29.58,WSW,247,0.0,0.0,33,0.00,,,0.00,WUHU21623XXSP,2013-03-22 19:19:00,
2013-03-22 15:24:00,53.4,24.9,29.58,WSW,247,0.0,0.0,33,0.00,,,0.00,WUHU21623XXSP,2013-03-22 19:24:00,
2013-03-22 15:29:00,52.9,24.4,29.58,West,270,0.0,0.0,33,0.00,,,0.00,WUHU21623XXSP,2013-03-22 19:29:00,
2013-03-22 15:34:00,52.3,23.9,29.58,WSW,247,0.0,0.0,33,0.00,,,0.00,WUHU21623XXSP,2013-03-22 19:34:00,
2013-03-22 15:39:00,51.6,24.0,29.57,WSW,247,0.0,0.0,34,0.00,,,0.00,WUHU21623XXSP,2013-03-22 19:39:00,
2013-03-22 15:44:00,51.6,24.6,29.57,WSW,247,0.0,0.0,35,0.00,,,0.00,WUHU21623XXSP,2013-03-22 19:44:00,
2013-03-22 15:49:00,51.4,24.5,29.57,West,270,0.0,0.0,35,0.00,,,0.00,WUHU21623XXSP,2013-03-22 19:49:00,
2013-03-22 15:54:00,51.4,24.5,29.57,West,270,0.0,0.0,35,0.00,,,0.00,WUHU21623XXSP,2013-03-22 19:54:00,
2013-03-22 15:59:00,51.8,24.8,29.58,West,270,0.0,0.0,35,0.00,,,0.00,WUHU21623XXSP,2013-03-22 19:59:00,
2013-03-22 16:04:00,52.0,25.0,29.57,WSW,247,0.0,0.0,35,0.00,,,0.00,WUHU21623XXSP,2013-03-22 20:04:00,
2013-03-22 16:09:00,51.6,25.3,29.57,West,270,0.0,0.0,36,0.00,,,0.00,WUHU21623XXSP,2013-03-22 20:09:00,
2013-03-22 16:14:00,52.0,25.6,29.57,West,270,0.0,0.0,36,0.00,,,0.00,WUHU21623XXSP,2013-03-22 20:14:00,
2013-03-22 16:19:00,52.2,25.8,29.58,West,270,0.0,0.0,36,0.00,,,0.00,WUHU21623XXSP,2013-03-22 20:19:00,
2013-03-22 16:24:00,52.5,25.4,29.57,WSW,247,0.0,0.0,35,0.00,,,0.00,WUHU21623XXSP,2013-03-22 20:24:00,
2013-03-22 16:29:00,52.7,25.6,29.57,WSW,247,0.0,0.0,35,0.00,,,0.00,WUHU21623XXSP,2013-03-22 20:29:00,
2013-03-22 16:34:00,53.1,25.9,29.57,WSW,247,0.0,0.0,35,0.00,,,0.00,WUHU21623XXSP,2013-03-22 20:34:00,
2013-03-22 16:39:00,53.2,26.1,29.56,WSW,247,0.0,0.0,35,0.00,,,0.00,WUHU21623XXSP,2013-03-22 20:39:00,
2013-03-22 16:44:00,53.2,26.1,29.56,SW,225,0.0,0.0,35,0.00,,,0.00,WUHU21623XXSP,2013-03-22 20:44:00,
2013-03-22 16:49:00,53.2,26.1,29.57,SW,225,0.0,0.0,35,0.00,,,0.00,WUHU21623XXSP,2013-03-22 20:49:00,
2013-03-22 16:54:00,53.2,26.1,29.56,SSE,157,0.0,0.0,35,0.00,,,0.00,WUHU21623XXSP,2013-03-22 20:54:00,
2013-03-22 16:59:00,52.9,26.5,29.56,SSE,157,0.0,0.0,36,0.00,,,0.00,WUHU21623XXSP,2013-03-22 20:59:00,
2013-03-22 17:04:00,52.9,27.1,29.56,SSE,157,0.0,0.0,37,0.00,,,0.00,WUHU21623XXSP,2013-03-22 21:04:00,
2013-03-22 17:09:00,53.4,27.6,29.56,SSE,157,0.0,0.0,37,0.00,,,0.00,WUHU21623XXSP,2013-03-22 21:09:00,
2013-03-22 17:14:00,53.8,27.2,29.55,SSW,202,0.0,0.0,36,0.00,,,0.00,WUHU21623XXSP,2013-03-22 21:14:00,
2013-03-22 17:19:00,53.8,27.2,29.55,SSW,202,0.0,0.0,36,0.00,,,0.00,WUHU21623XXSP,2013-03-22 21:19:00,
2013-03-22 17:24:00,54.3,27.7,29.56,South,180,0.0,0.0,36,0.00,,,0.00,WUHU21623XXSP,2013-03-22 21:24:00,
2013-03-22 17:29:00,54.3,27.7,29.56,South,180,0.0,0.0,36,0.00,,,0.00,WUHU21623XXSP,2013-03-22 21:29:00,
2013-03-22 17:34:00,54.0,26.7,29.56,SSE,157,0.0,0.0,35,0.00,,,0.00,WUHU21623XXSP,2013-03-22 21:34:00,
2013-03-22 17:39:00,54.0,27.4,29.56,SSE,157,0.0,0.0,36,0.00,,,0.00,WUHU21623XXSP,2013-03-22 21:39:00,
2013-03-22 17:44:00,53.8,27.9,29.56,SSE,157,0.0,0.0,37,0.00,,,0.00,WUHU21623XXSP,2013-03-22 21:44:00,
2013-03-22 17:49:00,53.8,27.9,29.56,SSE,157,0.0,0.0,37,0.00,,,0.00,WUHU21623XXSP,2013-03-22 21:49:00,
2013-03-22 17:54:00,53.8,27.9,29.56,SSE,157,0.0,0.0,37,0.00,,,0.00,WUHU21623XXSP,2013-03-22 21:54:00,
2013-03-22 17:59:00,53.6,27.6,29.56,SSE,157,0.0,0.0,37,0.00,,,0.00,WUHU21623XXSP,2013-03-22 21:59:00,
2013-03-22 18:04:00,53.4,28.3,29.55,SSE,157,0.0,0.0,38,0.00,,,0.00,WUHU21623XXSP,2013-03-22 22:04:00,
2013-03-22 18:09:00,53.2,28.1,29.55,SSE,157,0.0,0.0,38,0.00,,,0.00,WUHU21623XXSP,2013-03-22 22:09:00,
2013-03-22 18:14:00,52.9,27.8,29.55,SSE,157,0.0,0.0,38,0.00,,,0.00,WUHU21623XXSP,2013-03-22 22:14:00,
2013-03-22 18:19:00,53.1,28.0,29.55,SSE,157,0.0,0.0,38,0.00,,,0.00,WUHU21623XXSP,2013-03-22 22:19:00,
2013-03-22 18:24:00,52.9,28.5,29.55,SSE,157,0.0,0.0,39,0.00,,,0.00,WUHU21623XXSP,2013-03-22 22:24:00,
2013-03-22 18:29:00,52.7,28.3,29.55,South,180,0.0,0.0,39,0.00,,,0.00,WUHU21623XXSP,2013-03-22 22:29:00,
2013-03-22 18:34:00,52.3,28.0,29.56,South,180,0.0,0.0,39,0.00,,,0.00,WUHU21623XXSP,2013-03-22 22:34:00,
2013-03-22 18:39:00,51.8,27.5,29.56,South,180,0.0,0.0,39,0.00,,,0.00,WUHU21623XXSP,2013-03-22 22:39:00,
2013-03-22 18:44:00,51.4,27.9,29.56,South,180,0.0,0.0,40,0.00,,,0.00,WUHU21623XXSP,2013-03-22 22:44:00,
2013-03-22 18:49:00,50.9,27.4,29.56,South,180,0.0,0.0,40,0.00,,,0.00,WUHU21623XXSP,2013-03-22 22:49:00,
2013-03-22 18:54:00,50.7,27.8,29.56,South,180,0.0,0.0,41,0.00,,,0.00,WUHU21623XXSP,2013-03-22 22:54:00,
2013-03-22 18:59:00,50.2,27.9,29.57,South,180,0.0,0.0,42,0.00,,,0.00,WUHU21623XXSP,2013-03-22 22:59:00,
2013-03-22 19:04:00,49.8,27.5,29.56,South,180,0.0,0.0,42,0.00,,,0.00,WUHU21623XXSP,2013-03-22 23:04:00,
2013-03-22 19:09:00,49.6,27.9,29.57,South,180,0.0,0.0,43,0.00,,,0.00,WUHU21623XXSP,2013-03-22 23:09:00,
2013-03-22 19:14:00,49.3,28.1,29.57,South,180,0.0,0.0,44,0.00,,,0.00,WUHU21623XXSP,2013-03-22 23:14:00,
2013-03-22 19:19:00,48.9,28.4,29.57,South,180,0.0,0.0,45,0.00,,,0.00,WUHU21623XXSP,2013-03-22 23:19:00,
2013-03-22 19:24:00,48.7,28.2,29.56,South,180,0.0,0.0,45,0.00,,,0.00,WUHU21623XXSP,2013-03-22 23:24:00,
2013-03-22 19:29:00,48.6,28.0,29.56,South,180,0.0,0.0,45,0.00,,,0.00,WUHU21623XXSP,2013-03-22 23:29:00,
2013-03-22 19:34:00,48.2,27.7,29.56,South,180,0.0,0.0,45,0.00,,,0.00,WUHU21623XXSP,2013-03-22 23:34:00,
2013-03-22 19:39:00,48.0,28.1,29.57,South,180,0.0,0.0,46,0.00,,,0.00,WUHU21623XXSP,2013-03-22 23:39:00,
2013-03-22 19:45:00,48.0,28.1,29.57,South,180,0.0,0.0,46,0.00,,,0.00,WUHU21623XXSP,2013-03-22 23:45:00,
2013-03-22 19:50:00,47.8,28.4,29.57,South,180,0.0,0.0,47,0.00,,,0.00,WUHU21623XXSP,2013-03-22 23:50:00,
2013-03-22 19:55:00,47.7,28.3,29.57,South,180,0.0,0.0,47,0.00,,,0.00,WUHU21623XXSP,2013-03-22 23:55:00,
2013-03-22 20:00:00,47.5,28.7,29.57,South,180,0.0,0.0,48,0.00,,,0.00,WUHU21623XXSP,2013-03-23 00:00:00,
2013-03-22 20:05:00,47.5,28.7,29.58,South,180,0.0,0.0,48,0.00,,,0.00,WUHU21623XXSP,2013-03-23 00:05:00,
2013-03-22 20:10:00,47.3,28.5,29.58,South,180,0.0,0.0,48,0.00,,,0.00,WUHU21623XXSP,2013-03-23 00:10:00,
2013-03-22 20:15:00,47.3,29.0,29.58,South,180,0.0,0.0,49,0.00,,,0.00,WUHU21623XXSP,2013-03-23 00:15:00,
2013-03-22 20:20:00,47.3,28.5,29.58,South,180,0.0,0.0,48,0.00,,,0.00,WUHU21623XXSP,2013-03-23 00:20:00,
2013-03-22 20:25:00,47.3,29.0,29.57,South,180,0.0,0.0,49,0.00,,,0.00,WUHU21623XXSP,2013-03-23 00:25:00,
2013-03-22 20:30:00,47.3,29.0,29.57,South,180,0.0,0.0,49,0.00,,,0.00,WUHU21623XXSP,2013-03-23 00:30:00,
2013-03-22 20:35:00,47.1,28.9,29.58,South,180,0.0,0.0,49,0.00,,,0.00,WUHU21623XXSP,2013-03-23 00:35:00,
2013-03-22 20:40:00,47.1,29.4,29.58,South,180,0.0,0.0,50,0.00,,,0.00,WUHU21623XXSP,2013-03-23 00:40:00,
2013-03-22 20:45:00,47.1,29.4,29.58,South,180,0.0,0.0,50,0.00,,,0.00,WUHU21623XXSP,2013-03-23 00:45:00,
2013-03-22 20:50:00,46.9,29.2,29.58,South,180,0.0,0.0,50,0.00,,,0.00,WUHU21623XXSP,2013-03-23 00:50:00,
2013-03-22 20:55:00,46.9,29.7,29.58,South,180,0.0,0.0,51,0.00,,,0.00,WUHU21623XXSP,2013-03-23 00:55:00,
2013-03-22 21:00:00,46.9,29.7,29.58,South,180,0.0,0.0,51,0.00,,,0.00,WUHU21623XXSP,2013-03-23 01:00:00,
2013-03-22 21:05:00,46.9,29.2,29.58,South,180,0.0,0.0,50,0.00,,,0.00,WUHU21623XXSP,2013-03-23 01:05:00,
2013-03-22 21:10:00,46.9,29.7,29.58,South,180,0.0,0.0,51,0.00,,,0.00,WUHU21623XXSP,2013-03-23 01:10:00,
2013-03-22 21:15:00,46.9,29.7,29.58,South,180,0.0,0.0,51,0.00,,,0.00,WUHU21623XXSP,2013-03-23 01:15:00,
2013-03-22 21:20:00,46.8,30.0,29.59,South,180,0.0,0.0,52,0.00,,,0.00,WUHU21623XXSP,2013-03-23 01:20:00,
2013-03-22 21:25:00,46.6,30.3,29.59,South,180,0.0,0.0,53,0.00,,,0.00,WUHU21623XXSP,2013-03-23 01:25:00,
2013-03-22 21:30:00,46.6,30.3,29.58,South,180,0.0,0.0,53,0.00,,,0.00,WUHU21623XXSP,2013-03-23 01:30:00,
2013-03-22 21:35:00,46.6,29.8,29.58,South,180,0.0,0.0,52,0.00,,,0.00,WUHU21623XXSP,2013-03-23 01:35:00,
2013-03-22 21:40:00,46.6,30.3,29.59,South,180,0.0,0.0,53,0.00,,,0.00,WUHU21623XXSP,2013-03-23 01:40:00,
2013-03-22 21:45:00,46.6,30.3,29.59,South,180,0.0,0.0,53,0.00,,,0.00,WUHU21623XXSP,2013-03-23 01:45:00,
2013-03-22 21:50:00,46.6,30.3,29.59,South,180,0.0,0.0,53,0.00,,,0.00,WUHU21623XXSP,2013-03-23 01:50:00,
2013-03-22 21:55:00,46.6,30.7,29.59,South,180,0.0,0.0,54,0.00,,,0.00,WUHU21623XXSP,2013-03-23 01:55:00,
2013-03-22 22:00:00,46.6,30.7,29.59,South,180,0.0,0.0,54,0.00,,,0.00,WUHU21623XXSP,2013-03-23 02:00:00,
2013-03-22 22:05:00,46.6,30.7,29.59,South,180,0.0,0.0,54,0.00,,,0.00,WUHU21623XXSP,2013-03-23 02:05:00,
2013-03-22 22:10:00,46.2,30.4,29.59,South,180,0.0,0.0,54,0.00,,,0.00,WUHU21623XXSP,2013-03-23 02:10:00,
2013-03-22 22:15:00,46.2,30.4,29.59,South,180,0.0,0.0,54,0.00,,,0.00,WUHU21623XXSP,2013-03-23 02:15:00,
2013-03-22 22:20:00,46.2,30.4,29.59,South,180,0.0,0.0,54,0.00,,,0.00,WUHU21623XXSP,2013-03-23 02:20:00,
2013-03-22 22:25:00,46.0,30.7,29.59,South,180,0.0,0.0,55,0.00,,,0.00,WUHU21623XXSP,2013-03-23 02:25:00,
2013-03-22 22:30:00,46.0,30.7,29.59,South,180,0.0,0.0,55,0.00,,,0.00,WUHU21623XXSP,2013-03-23 02:30:00,
2013-03-22 22:35:00,46.0,30.7,29.58,South,180,0.0,0.0,55,0.00,,,0.00,WUHU21623XXSP,2013-03-23 02:35:00,
2013-03-22 22:40:00,46.0,30.7,29.59,South,180,0.0,0.0,55,0.00,,,0.00,WUHU21623XXSP,2013-03-23 02:40:00,
2013-03-22 22:45:00,46.2,30.4,29.59,South,180,0.0,0.0,54,0.00,,,0.00,WUHU21623XXSP,2013-03-23 02:45:00,
2013-03-22 22:50:00,46.0,30.7,29.58,South,180,0.0,0.0,55,0.00,,,0.00,WUHU21623XXSP,2013-03-23 02:50:00,
2013-03-22 22:55:00,46.0,31.1,29.58,South,180,0.0,0.0,56,0.00,,,0.00,WUHU21623XXSP,2013-03-23 02:55:00,
2013-03-22 23:00:00,46.0,30.7,29.58,South,180,0.0,0.0,55,0.00,,,0.00,WUHU21623XXSP,2013-03-23 03:00:00,
2013-03-22 23:05:00,46.0,30.7,29.58,South,180,0.0,0.0,55,0.00,,,0.00,WUHU21623XXSP,2013-03-23 03:05:00,
2013-03-22 23:10:00,45.7,30.8,29.58,South,180,0.0,0.0,56,0.00,,,0.00,WUHU21623XXSP,2013-03-23 03:10:00,
2013-03-22 23:15:00,45.7,30.8,29.58,South,180,0.0,0.0,56,0.00,,,0.00,WUHU21623XXSP,2013-03-23 03:15:00,
2013-03-22 23:20:00,45.7,31.3,29.58,South,180,0.0,0.0,57,0.00,,,0.00,WUHU21623XXSP,2013-03-23 03:20:00,
2013-03-22 23:25:00,45.7,31.7,29.58,South,180,0.0,0.0,58,0.00,,,0.00,WUHU21623XXSP,2013-03-23 03:25:00,
2013-03-22 23:30:00,45.7,31.3,29.58,South,180,0.0,0.0,57,0.00,,,0.00,WUHU21623XXSP,2013-03-23 03:30:00,
2013-03-22 23:35:00,45.9,31.9,29.58,South,180,0.0,0.0,58,0.00,,,0.00,WUHU21623XXSP,2013-03-23 03:35:00,
2013-03-22 23:40:00,46.0,32.5,29.58,South,180,0.0,0.0,59,0.00,,,0.00,WUHU21623XXSP,2013-03-23 03:40:00,
2013-03-22 23:45:00,46.0,32.5,29.58,South,180,0.0,0.0,59,0.00,,,0.00,WUHU21623XXSP,2013-03-23 03:45:00,
2013-03-22 23:51:00,46.0,32.5,29.58,South,180,0.0,0.0,59,0.00,,,0.00,WUHU21623XXSP,2013-03-23 03:51:00,
2013-03-22 23:56:00,46.0,32.5,29.58,South,180,0.0,0.0,59,0.00,,,0.00,WUHU21623XXSP,2013-03-23 03:56:00,